GFSWCAN_850_rhum_330.txt.gz
RH
52 25 23 18 12 10 7 6 5 5 5 6 9 15 18 18 14 10 14 14 13 65 69 55 49 44 46 48 76 63 50 50 67 75 86 95 91 81 81 71 89 96 91 97 95 95 96 68 83 97 96 87 86 87
43 26 22 15 12 9 7 6 5 5 4 6 10 15 19 17 15 12 12 23 12 44 65 49 43 40 45 40 46 68 66 77 66 91 93 92 86 90 80 92 68 85 84 95 90 85 59 72 75 82 86 82 86 89
36 27 20 14 12 10 8 6 6 5 5 5 5 6 7 7 10 10 16 14 12 51 47 39 56 51 44 35 29 32 59 58 60 63 73 93 86 87 95 84 82 73 89 83 95 75 88 82 81 74 78 84 80 85
34 26 16 14 12 11 9 8 6 6 5 6 6 6 7 10 16 11 8 10 12 29 61 71 61 66 64 46 31 37 44 55 55 60 65 85 86 79 87 82 96 94 99 98 88 81 92 81 73 74 74 75 78 78
35 22 16 15 14 13 12 10 8 10 9 8 10 13 15 14 11 8 10 12 13 16 71 73 68 72 68 60 48 45 47 48 55 59 72 86 78 85 83 83 98 99 99 100 98 97 100 97 77 73 83 79 78 77
34 19 17 16 17 18 15 11 12 18 16 16 15 14 16 17 11 9 13 26 20 17 38 84 70 71 69 68 58 50 50 54 59 66 74 71 72 87 96 94 99 100 100 100 98 100 100 92 80 76 83 80 72 65
28 20 19 21 23 22 18 13 13 17 19 18 17 20 17 19 8 8 22 29 22 24 38 73 70 68 68 69 68 63 58 62 64 73 77 79 84 92 89 98 99 100 100 100 100 97 96 82 76 77 77 70 54 47
24 22 22 28 29 27 23 18 13 11 13 18 18 16 15 20 19 35 40 43 40 38 40 78 77 66 67 69 76 71 65 70 73 79 84 89 86 98 98 99 100 100 99 99 100 99 92 80 78 69 69 55 42 39
23 24 28 33 33 30 27 21 17 13 11 12 18 21 23 28 37 40 33 36 39 38 57 64 86 82 62 80 79 76 70 86 83 83 89 76 94 99 99 100 100 100 100 100 95 92 80 77 68 72 57 44 41 37
24 26 32 36 36 34 32 26 18 16 17 18 12 9 18 35 28 18 12 18 35 49 52 71 73 84 67 79 83 74 75 96 94 94 85 92 87 74 92 99 100 100 100 100 84 82 74 65 71 65 51 44 38 37
25 28 34 39 39 39 37 33 24 15 14 17 19 35 33 20 14 20 38 50 51 60 55 59 61 70 63 66 79 70 84 84 86 87 90 96 90 70 81 91 99 100 100 100 98 98 97 92 79 58 47 43 39 38
27 31 37 42 42 40 35 30 27 22 19 18 20 22 13 18 26 52 95 75 68 67 62 55 59 57 58 57 60 73 80 80 79 92 86 86 75 68 78 85 96 98 99 89 82 78 89 86 77 62 51 46 42 40
28 34 40 45 43 37 34 30 25 19 15 14 16 20 27 33 54 53 88 87 88 65 64 62 69 60 62 58 72 68 66 76 80 92 97 89 63 66 72 78 92 91 96 92 78 72 65 73 88 76 63 54 51 44
31 38 43 45 42 37 33 32 28 20 24 24 28 64 62 73 70 67 64 72 61 58 55 57 68 62 67 67 77 64 73 71 95 78 65 68 63 60 66 69 80 91 88 91 79 74 70 56 54 72 85 70 62 52
36 45 49 47 42 39 33 30 31 29 32 41 36 66 73 60 70 65 63 60 59 53 53 50 55 58 72 78 78 70 66 74 82 79 82 63 42 37 38 49 66 86 87 90 87 70 74 60 54 55 59 88 85 70
48 55 56 52 42 38 41 46 37 30 46 59 64 72 69 66 68 60 55 57 54 47 45 47 62 67 78 74 70 65 61 74 80 65 64 54 37 41 41 46 62 49 52 66 81 75 75 77 76 60 55 52 52 70
58 68 71 59 61 52 48 38 35 40 56 65 72 62 62 54 51 47 44 48 45 40 51 54 60 59 72 80 70 73 71 74 66 64 64 54 43 47 45 42 39 36 34 32 39 57 70 76 76 79 70 50 52 49
84 77 75 70 66 62 58 49 45 54 72 75 68 60 53 48 46 42 42 43 40 33 32 39 40 43 74 71 76 57 69 62 57 55 57 47 41 39 34 33 33 33 33 32 33 40 54 72 80 77 83 84 50 38
90 89 92 94 89 77 53 49 52 68 83 79 69 56 50 45 42 37 33 33 35 31 32 35 44 49 49 46 42 48 43 40 38 38 37 36 35 33 32 33 37 44 48 48 46 49 59 60 69 66 66 76 69 56
91 95 99 93 76 51 51 58 64 69 66 74 67 58 54 49 44 39 36 34 36 40 43 44 43 32 29 32 37 38 36 36 38 38 36 37 41 42 40 39 42 47 48 45 39 40 51 67 78 74 62 61 62 55
97 98 96 83 53 51 55 60 73 77 71 71 66 56 58 54 50 45 44 42 44 46 47 42 32 31 32 31 33 36 41 47 47 47 47 47 45 45 45 45 44 41 43 41 48 52 46 49 56 63 66 61 56 58
98 99 88 63 61 64 61 70 77 76 73 72 61 56 57 54 53 51 52 51 51 47 45 40 38 42 42 43 43 44 47 50 52 51 50 49 47 47 44 45 46 49 51 52 54 57 57 56 51 52 64 66 60 56
91 91 73 60 59 74 88 86 76 72 77 71 58 60 64 56 51 50 46 46 41 34 29 29 32 36 40 43 46 49 52 53 54 54 53 49 47 44 45 48 49 49 51 53 54 55 55 57 62 61 59 61 65 66
90 86 78 63 74 98 97 92 84 81 76 74 71 82 74 64 64 56 67 54 35 30 26 25 29 35 38 38 39 40 41 47 50 48 45 44 45 46 48 57 59 61 65 71 73 73 72 71 70 72 70 64 59 60
85 80 77 99 100 90 87 100 93 82 96 87 82 91 72 66 80 89 77 53 30 24 22 25 29 32 35 37 38 38 38 37 40 43 45 46 43 45 57 53 38 26 26 25 26 33 50 59 61 62 61 57 55 59
98 100 92 89 96 87 87 98 98 94 92 92 72 70 65 63 75 76 59 34 27 22 20 20 20 19 19 19 22 24 27 34 38 38 38 38 38 42 40 23 20 21 31 31 28 26 25 23 23 24 27 36 46 46
95 99 94 85 80 82 82 81 79 73 90 87 83 76 71 76 79 52 35 27 22 19 18 18 17 16 14 14 15 17 23 27 27 27 26 22 24 36 30 27 32 38 36 36 39 44 42 34 27 25 26 32 44 51
91 94 97 94 79 72 86 80 81 78 65 62 60 78 72 73 67 30 25 24 22 22 22 20 20 19 18 15 14 14 16 19 20 22 25 22 24 31 44 41 38 46 51 47 47 48 47 44 40 37 33 29 29 37
98 92 86 85 70 66 62 63 56 47 48 59 57 71 50 42 28 25 24 23 22 22 22 22 24 24 23 23 19 16 16 16 19 29 41 46 51 53 54 50 50 48 49 49 50 47 44 45 48 48 46 38 33 36
95 78 71 70 72 82 52 48 42 40 45 46 43 38 34 30 27 26 25 24 22 20 20 23 26 26 26 26 26 24 22 22 25 27 28 33 40 48 42 40 42 44 45 45 43 41 43 46 45 50 52 48 45 44
80 67 68 64 58 55 47 45 44 43 42 43 41 35 34 33 32 28 26 28 28 27 26 25 24 24 25 27 27 27 27 28 30 33 36 36 36 35 36 40 44 46 47 49 53 52 51 52 54 55 53 51 52 58
73 68 68 99 99 60 53 51 50 51 47 45 47 42 43 44 42 37 30 29 30 28 26 29 30 28 25 26 30 32 33 31 31 27 25 30 34 34 40 43 45 48 51 50 50 51 52 51 51 52 54 53 54 56
85 78 96 100 98 92 67 56 66 65 57 56 48 43 44 47 44 39 32 28 26 23 23 25 25 26 30 32 31 32 31 31 29 27 31 35 36 39 44 46 48 50 52 53 54 54 54 53 53 52 51 52 53 54

GFSWCAN_850_rhum_336.txt.gz
RH
74 68 24 15 14 10 7 5 6 29 29 25 18 16 19 18 18 14 15 13 20 58 76 69 67 47 42 42 31 52 44 44 27 37 36 45 45 50 45 46 64 85 87 84 90 91 95 72 67 81 91 92 76 76
73 52 18 16 12 8 6 6 18 32 28 26 24 22 20 17 15 10 14 16 10 48 76 57 46 39 35 38 49 61 51 51 46 46 41 40 46 49 51 65 48 87 94 96 86 77 71 93 100 92 87 80 80 83
75 30 19 15 10 7 6 7 25 32 30 27 22 15 14 12 13 9 12 14 11 54 61 63 76 42 24 21 28 38 59 54 58 60 52 50 60 56 67 69 91 71 98 96 94 87 99 98 91 76 74 81 82 81
70 23 18 12 9 7 6 14 23 27 25 20 15 15 15 16 13 10 8 10 15 48 55 79 70 47 39 28 27 29 27 36 56 52 52 48 56 65 62 66 97 100 98 100 94 83 85 76 73 76 81 83 80 79
47 21 14 10 9 8 7 17 26 28 26 21 16 16 13 14 11 8 8 11 12 32 46 68 63 60 43 38 36 38 37 57 50 53 53 57 60 67 60 78 100 99 99 99 94 81 98 91 83 84 86 82 82 81
24 17 12 11 10 9 8 14 18 23 22 17 14 16 15 10 8 7 16 24 20 17 47 53 78 76 66 52 52 44 41 62 62 57 59 65 86 79 74 94 99 100 100 100 98 99 100 99 96 88 85 84 80 80
19 13 12 13 13 11 12 14 13 14 15 19 19 14 10 8 8 9 16 19 18 14 48 51 50 61 53 59 65 66 55 72 66 65 67 69 76 74 85 100 98 99 100 99 99 100 88 83 88 90 84 74 67 62
15 15 16 26 28 25 24 25 28 26 21 16 14 12 10 8 10 14 17 16 15 17 49 52 56 55 57 61 58 62 61 64 71 67 69 64 71 76 95 99 100 100 100 100 99 92 94 95 89 78 68 57 53 56
17 20 29 42 44 41 35 34 27 24 19 15 11 10 14 15 24 35 25 22 20 26 50 45 47 55 58 72 72 64 65 62 75 58 62 63 67 100 98 100 100 100 100 99 94 91 91 89 89 78 68 61 52 50
22 25 45 49 54 46 41 34 29 23 17 16 14 13 21 32 20 10 10 18 27 49 57 54 56 52 57 60 56 54 61 58 56 64 74 59 86 86 98 100 100 100 100 100 99 95 96 96 94 86 70 60 59 54
26 30 48 53 56 54 48 40 25 20 18 10 15 30 21 12 10 12 25 58 66 55 54 62 46 53 60 44 48 57 54 54 52 68 50 56 69 68 92 100 91 84 92 95 96 98 100 100 96 89 63 52 46 44
28 28 33 46 50 46 40 30 22 22 11 14 16 12 9 10 17 61 87 60 48 46 58 46 53 54 62 63 45 59 50 53 64 72 51 64 57 67 82 98 91 75 70 78 84 86 98 100 96 85 70 59 50 46
30 28 26 27 30 30 27 26 20 14 16 9 7 10 18 24 79 60 74 57 57 55 61 53 53 50 59 57 54 45 52 64 58 52 57 70 59 66 79 87 95 90 74 70 72 66 81 86 78 82 86 70 62 55
34 32 31 30 27 25 26 15 17 12 15 15 19 65 71 70 35 34 35 40 62 53 46 45 59 48 55 54 57 49 55 54 49 60 84 58 53 63 68 56 71 63 59 68 72 76 76 80 78 57 56 77 74 63
43 40 34 28 22 19 16 17 14 23 23 27 39 70 57 68 68 72 71 64 56 54 50 50 50 45 52 62 52 51 60 54 38 47 66 54 57 63 61 54 57 53 48 47 51 75 74 79 77 72 48 44 47 60
47 42 34 30 25 23 22 27 30 36 33 52 67 68 72 63 72 67 58 64 57 49 46 39 41 45 51 45 45 53 42 48 47 42 51 54 60 62 49 46 44 38 32 41 47 38 82 87 83 84 54 46 40 35
41 36 33 29 24 22 26 29 37 37 55 73 78 76 70 60 61 56 47 52 51 36 42 40 43 51 51 50 44 38 41 46 46 50 51 55 56 55 46 40 34 32 35 47 53 48 60 74 79 77 79 67 60 58
29 30 31 32 31 38 39 37 38 59 83 80 76 75 72 63 64 62 58 37 35 35 35 39 51 46 48 39 45 51 64 65 54 53 56 54 49 48 39 34 34 34 49 51 48 52 57 65 75 78 81 68 74 60
28 36 38 38 42 46 44 43 62 84 86 84 76 71 66 66 58 49 39 35 29 30 35 31 34 36 40 46 48 56 62 63 67 69 62 49 48 38 36 36 37 45 47 46 49 50 56 61 72 76 73 69 77 65
39 41 43 44 45 43 44 62 64 68 78 68 66 65 64 59 48 42 39 37 38 36 34 31 22 32 37 47 56 58 60 62 61 58 53 47 38 37 40 42 48 43 49 48 50 47 57 56 62 67 63 60 65 68
46 51 50 46 43 42 57 68 73 75 64 77 63 59 60 56 51 50 48 31 38 36 32 32 36 36 39 45 57 56 54 52 51 46 44 45 45 44 47 42 40 47 53 52 54 57 63 64 64 56 47 50 51 55
58 55 55 45 44 54 72 77 83 71 76 76 54 60 53 55 53 55 40 46 42 44 40 37 36 27 28 42 52 50 44 38 37 37 37 41 50 50 49 47 50 51 53 55 54 52 55 56 52 57 60 63 65 65
63 55 49 52 59 68 82 78 80 76 71 70 61 61 65 62 58 48 57 50 49 34 29 31 34 36 37 34 34 34 34 38 45 51 51 52 54 46 47 45 46 49 60 60 51 60 65 62 57 54 55 58 62 62
80 67 63 68 86 99 93 92 85 78 76 69 65 71 68 70 58 60 47 47 50 33 32 32 31 33 36 39 41 40 40 40 45 54 51 54 58 55 41 44 47 52 48 34 23 20 20 22 21 21 21 22 21 22
93 87 72 99 100 96 94 96 82 76 84 74 71 76 79 74 62 64 52 52 47 33 29 30 26 27 42 43 42 38 37 41 47 55 51 46 55 49 43 45 49 50 40 18 30 39 44 46 44 38 33 29 26 25
90 95 89 88 91 80 81 88 86 85 74 78 68 73 76 66 70 65 47 51 29 28 24 20 21 24 23 25 38 30 28 29 35 40 39 32 35 40 43 42 43 38 19 25 29 34 40 45 49 50 44 41 34 29
92 93 97 90 81 80 84 84 74 72 82 82 74 83 75 72 72 47 26 25 25 20 18 17 19 20 19 16 14 16 16 21 20 22 28 35 37 38 39 37 32 19 21 28 40 46 46 48 51 48 41 34 30 32
89 96 93 91 86 77 85 75 80 85 74 69 64 79 75 77 56 26 24 23 22 17 16 16 18 16 13 10 9 10 10 12 17 24 25 24 24 23 22 22 23 28 37 44 47 50 52 50 42 35 31 28 28 34
99 93 84 88 81 76 67 66 63 48 50 62 63 59 51 28 26 25 23 21 18 16 16 16 14 14 12 11 12 13 13 14 15 17 17 18 21 21 22 25 32 37 40 45 47 45 37 35 35 40 45 46 44 42
96 86 78 76 74 74 59 53 49 47 46 46 36 31 29 26 24 24 23 21 18 17 15 15 15 15 15 16 16 16 17 17 17 17 18 19 21 24 26 25 27 27 27 30 32 34 37 40 43 42 43 44 45 45
72 70 70 70 73 56 52 50 50 48 47 44 37 32 30 26 24 24 24 23 22 21 19 18 18 19 19 19 19 20 22 22 23 24 24 24 23 26 29 32 30 25 27 29 31 36 39 41 41 40 39 41 44 46
70 69 73 83 92 62 63 61 57 51 48 48 45 38 34 29 27 24 22 23 22 22 21 22 21 20 19 20 22 24 25 25 25 26 27 28 29 31 32 32 26 24 27 30 33 36 39 41 43 43 43 44 46 46
78 72 84 94 99 86 66 62 66 65 55 54 50 47 43 38 34 27 23 22 20 18 18 19 19 21 22 23 23 24 26 28 28 28 29 31 34 35 34 29 24 22 25 30 36 40 44 44 42 43 46 49 51 53

GFSWCAN_850_rhum_339.txt.gz
RH
91 80 74 57 20 13 11 6 4 5 8 9 9 12 22 19 17 15 26 38 38 49 62 60 53 39 36 29 31 39 39 36 25 33 34 35 37 40 56 50 62 74 91 94 95 83 96 71 56 74 75 74 72 66
86 76 64 27 14 14 8 5 6 26 21 15 13 19 22 18 16 13 23 27 24 46 66 66 65 56 61 65 35 45 41 37 40 33 32 30 41 48 52 74 49 84 98 99 89 88 75 89 82 78 75 70 68 64
80 70 41 15 15 10 6 6 34 33 30 19 20 23 20 18 14 10 14 15 17 51 50 54 65 62 37 35 43 32 45 47 56 41 38 39 56 54 68 70 75 80 98 87 98 96 96 91 79 71 66 68 66 62
75 61 20 16 12 8 6 25 34 29 28 27 23 20 18 18 15 12 23 38 30 34 47 64 62 62 61 55 40 32 47 55 49 43 41 42 53 56 70 85 97 100 98 98 95 78 71 67 65 70 71 68 64 63
73 34 18 14 10 7 9 35 35 28 26 21 18 17 20 17 10 14 23 34 37 30 40 59 58 66 61 59 60 54 49 46 46 45 46 51 55 67 66 84 100 100 99 99 80 83 90 79 76 80 73 65 64 64
62 21 17 11 9 8 23 34 30 23 20 19 18 20 19 14 9 18 22 44 31 34 35 51 65 63 65 59 61 59 54 52 49 48 49 59 72 74 74 98 100 100 100 100 97 98 100 95 92 74 70 66 61 61
36 20 13 10 9 13 30 32 26 22 20 20 20 19 13 9 11 29 26 36 46 40 40 39 43 56 64 58 52 57 62 60 52 54 58 56 61 68 94 100 98 100 100 98 99 98 78 75 71 63 57 50 50 51
24 16 10 10 10 19 31 32 26 23 22 22 18 13 11 10 17 25 18 18 34 38 37 43 49 44 62 44 50 51 50 52 60 55 58 56 60 71 97 100 100 100 99 100 91 80 77 73 67 57 48 42 43 46
18 12 12 13 13 21 22 25 23 26 20 16 13 11 17 35 39 26 16 13 29 41 36 32 44 47 56 53 48 49 46 57 52 50 56 55 60 95 99 99 100 100 99 93 82 85 82 80 74 65 56 44 41 40
13 14 18 17 19 19 23 29 24 19 15 13 15 16 18 24 18 12 19 31 58 44 41 33 35 42 39 41 45 41 45 46 49 45 53 59 74 79 98 98 95 98 85 80 85 96 99 99 94 80 72 65 56 52
19 32 34 33 33 34 29 25 20 16 16 13 18 49 20 12 36 42 32 74 56 44 41 38 40 48 50 37 40 42 43 42 46 54 47 58 74 71 94 83 87 96 76 72 76 92 97 98 99 98 85 80 75 72
39 42 44 40 35 31 28 23 19 22 18 18 21 11 14 41 30 85 77 46 35 40 43 38 40 42 52 46 37 46 41 44 57 49 49 66 57 66 92 84 93 85 88 77 72 69 76 82 93 100 98 91 88 69
47 47 46 46 43 36 29 24 20 13 13 10 12 11 46 38 93 56 91 47 51 43 42 47 42 38 44 40 39 36 44 52 41 49 57 66 53 62 86 88 84 83 82 85 81 82 67 70 74 80 91 92 75 62
53 51 48 49 44 32 29 26 14 13 26 22 31 79 64 64 28 28 27 34 39 42 41 36 35 34 39 41 42 42 40 40 43 63 90 51 50 60 63 66 52 50 51 68 81 81 82 65 66 67 69 71 71 64
54 53 51 48 40 31 22 16 15 19 25 50 46 79 52 49 50 54 50 40 36 34 35 34 33 36 39 52 41 44 52 48 33 42 60 45 50 54 54 50 45 45 46 47 53 73 83 83 69 65 63 62 46 41
41 42 38 34 28 21 19 18 28 32 42 62 56 57 49 54 56 46 41 41 41 33 26 26 30 35 40 36 40 53 40 38 37 39 45 46 48 48 49 48 45 46 44 46 48 58 75 76 75 75 76 75 74 51
37 32 29 24 21 21 24 32 36 43 76 65 66 53 50 56 52 48 43 38 36 26 31 30 34 38 34 38 32 28 34 36 37 44 44 47 51 50 50 49 47 47 44 45 47 50 63 70 70 69 68 71 70 77
29 32 31 27 26 26 30 35 45 65 73 67 73 62 54 48 44 45 47 42 30 29 26 33 36 35 36 28 36 40 42 41 42 42 48 50 52 52 48 48 49 46 43 43 44 44 49 66 68 68 68 69 65 67
30 28 26 28 28 31 42 53 76 73 76 69 60 55 55 51 48 42 41 38 34 32 29 26 28 28 30 33 36 44 44 42 43 49 52 53 54 52 51 48 47 44 42 42 44 44 47 54 61 65 67 70 71 75
31 38 41 31 32 39 53 65 74 65 66 66 54 52 50 47 43 40 35 29 26 24 26 23 20 28 32 38 41 45 46 48 49 52 53 52 50 50 49 49 39 42 41 42 43 46 48 47 48 51 59 63 65 72
41 44 46 42 39 46 82 81 78 73 73 64 55 50 51 48 44 43 40 32 28 24 24 25 35 46 46 50 48 49 53 53 47 42 43 44 45 44 44 43 44 41 43 44 45 51 54 53 55 58 68 81 80 78
46 45 43 39 40 57 88 88 76 76 71 62 52 46 49 50 45 44 37 34 31 32 27 28 34 49 59 57 55 56 54 49 49 44 42 41 43 39 38 40 40 43 43 46 49 56 61 64 64 68 75 46 64 63
43 42 43 48 58 66 78 92 72 68 68 59 50 51 50 46 50 49 42 33 36 38 34 33 35 34 39 51 53 52 52 46 40 38 42 39 40 45 43 42 45 51 53 56 62 60 57 36 49 23 44 36 23 21
50 58 56 72 90 99 90 89 70 68 60 56 56 63 54 57 51 44 38 38 36 41 42 47 42 44 45 44 43 43 45 45 42 45 46 46 46 47 47 46 47 54 59 59 54 44 45 38 37 45 41 34 31 28
67 84 71 100 93 96 94 90 69 69 96 67 68 69 67 59 53 53 41 40 41 39 36 43 42 41 38 41 42 41 48 48 43 43 47 50 48 48 51 52 56 62 66 59 25 34 36 38 42 45 48 44 37 30
95 94 93 90 91 84 76 95 98 86 70 88 57 62 64 55 75 74 39 43 44 38 38 43 42 42 40 38 39 44 51 50 50 45 47 55 52 54 55 54 60 63 42 23 20 25 31 40 43 45 49 47 36 26
94 94 84 78 64 63 74 71 57 68 100 96 66 84 78 90 92 45 48 49 46 37 37 39 39 37 37 43 42 43 47 24 40 46 52 29 29 48 48 55 58 55 52 29 22 29 38 43 46 46 37 28 28 34
86 83 87 79 73 70 86 66 94 100 74 59 57 99 96 92 60 48 53 29 48 46 32 19 20 30 33 24 14 18 20 25 36 31 26 21 19 20 20 20 19 18 21 23 28 33 38 39 35 31 30 33 37 38
92 76 81 94 83 82 68 69 63 56 60 57 85 55 50 45 37 27 23 20 20 22 30 25 19 19 15 10 9 9 9 10 12 14 14 16 17 17 17 18 19 20 22 22 19 23 25 25 26 28 31 34 36 35
89 79 74 78 87 87 86 78 76 68 67 56 54 39 39 27 24 23 22 21 20 20 16 15 14 15 13 10 11 13 14 15 15 16 17 18 19 20 21 22 22 22 21 18 18 20 20 24 27 33 35 35 34 31
81 83 76 78 91 95 75 56 55 51 56 56 38 48 54 27 24 23 22 20 16 15 16 16 16 15 13 11 13 14 14 15 16 17 18 19 20 21 22 24 26 27 27 22 18 20 24 27 32 36 38 38 33 31
96 88 82 97 99 67 62 58 61 56 50 45 38 34 31 27 25 23 22 19 17 17 17 17 16 15 14 14 15 15 16 17 19 19 21 21 22 24 26 26 27 30 30 25 20 21 26 31 35 35 33 30 32 38
94 90 97 97 97 98 63 64 71 69 55 53 44 38 35 30 28 25 21 20 18 16 15 16 16 17 18 18 18 19 20 20 21 22 24 25 25 26 28 29 32 32 30 24 20 21 25 30 30 28 31 38 44 47

GFSWCAN_850_rhum_345.txt.gz
RH
97 100 98 100 98 100 99 81 50 13 8 6 5 15 35 30 45 48 43 31 24 61 57 46 44 43 37 35 68 35 53 46 53 59 63 58 71 63 81 74 78 89 99 98 99 97 99 80 68 85 74 67 66 51
99 100 99 98 100 99 87 71 24 9 7 5 6 19 37 32 55 45 43 37 30 46 59 47 43 42 37 36 38 45 47 38 37 63 62 75 80 81 77 99 79 96 100 100 100 99 85 76 68 69 73 72 67 57
100 100 100 100 99 84 74 36 12 8 6 5 8 27 32 48 54 39 36 32 23 44 47 44 51 42 41 39 39 48 45 43 40 40 47 73 83 87 97 99 96 99 98 99 98 90 82 80 77 75 66 60 59 55
100 100 100 96 80 73 41 15 10 7 6 6 14 35 35 49 47 36 27 27 21 48 65 58 49 47 45 43 41 43 46 45 44 44 57 79 89 70 97 99 100 100 98 100 95 86 75 68 67 66 66 54 57 57
100 100 98 82 71 43 16 11 8 6 7 20 27 36 34 36 35 35 36 29 35 27 65 58 55 54 52 51 50 49 48 49 55 59 69 84 71 76 88 94 98 100 100 99 99 92 99 79 70 64 66 57 51 56
100 99 82 72 39 16 12 8 6 12 29 29 33 25 33 42 46 34 27 33 29 32 44 83 58 57 53 51 49 51 52 53 52 56 62 66 71 72 90 93 99 100 100 100 96 92 91 76 65 55 47 50 50 45
98 81 68 31 17 12 7 11 28 34 34 35 32 38 52 41 29 27 23 36 39 25 44 64 59 56 52 54 56 54 51 52 55 59 66 70 79 82 96 99 98 99 95 89 85 83 78 75 64 48 43 43 41 41
84 62 26 18 11 8 31 41 40 37 36 30 44 50 41 36 33 35 30 32 36 34 37 74 72 56 51 55 56 53 53 53 55 55 57 65 76 93 99 99 98 93 82 81 78 80 81 78 67 59 52 46 50 50
63 26 18 12 10 37 40 44 42 35 37 44 39 36 36 38 39 42 41 35 32 29 38 51 86 82 53 50 53 50 52 76 52 59 60 61 84 97 98 95 91 79 77 86 82 84 86 84 80 74 65 57 56 60
29 18 13 12 39 40 37 33 31 43 47 36 26 21 20 39 39 35 30 18 31 33 34 49 49 76 52 51 50 48 50 79 75 66 54 82 82 88 90 84 81 78 68 74 80 81 89 95 91 86 85 80 74 69
20 15 14 38 39 34 35 40 46 41 42 32 21 37 41 36 30 17 45 57 45 48 37 47 49 53 45 58 66 42 65 59 78 72 81 85 95 85 81 84 82 76 66 65 70 74 82 88 91 92 86 74 64 65
18 17 34 40 36 37 40 39 41 39 32 17 21 34 37 34 27 66 95 55 58 56 41 51 47 44 38 35 44 42 59 60 80 50 84 94 84 76 79 85 82 76 73 68 65 66 67 71 75 79 78 64 63 63
20 27 43 35 37 37 36 46 35 25 16 17 14 23 35 41 58 44 70 71 76 44 46 46 46 37 36 36 39 46 56 79 50 84 92 93 79 83 80 83 79 78 78 70 65 65 62 59 57 55 52 50 51 62
26 42 35 33 30 39 38 33 25 19 22 18 25 52 68 62 46 54 58 64 38 45 48 36 37 37 38 48 47 51 51 54 73 84 97 86 78 82 74 71 64 66 73 76 73 69 66 70 73 62 45 48 49 52
38 39 34 29 41 36 33 25 36 31 44 48 45 72 66 49 43 43 39 41 46 43 35 36 37 39 52 59 54 52 51 58 62 80 91 79 69 64 62 54 49 48 50 58 71 72 73 70 70 72 72 73 66 56
39 36 32 42 35 27 26 37 27 32 53 51 50 63 54 53 55 48 48 47 40 33 29 28 41 52 53 59 56 57 63 60 66 67 69 68 65 57 47 44 44 45 48 52 68 69 67 64 64 64 66 68 69 70
40 44 35 26 23 29 29 24 38 59 63 52 53 51 50 54 55 48 44 40 29 30 46 38 46 40 40 54 45 52 59 73 61 64 64 61 56 45 43 43 43 44 45 46 47 60 67 64 62 62 65 70 73 77
40 40 36 28 22 24 27 43 62 65 65 58 59 50 44 42 43 40 35 32 31 26 29 38 32 42 52 44 55 59 58 58 57 57 54 52 48 46 45 44 42 41 42 42 44 50 60 60 59 60 63 64 63 70
39 40 35 27 22 28 46 58 63 63 59 56 49 47 45 42 38 36 34 30 26 28 29 27 38 42 46 42 54 55 54 53 53 51 50 48 48 46 48 45 42 41 40 43 45 46 49 50 52 55 58 65 71 72
31 25 24 22 26 42 66 69 64 60 60 53 48 45 43 42 38 32 27 23 23 26 25 39 41 40 43 44 47 49 49 49 51 53 51 49 47 47 39 43 39 39 38 42 49 49 48 54 66 70 68 69 74 69
23 30 29 27 39 62 73 71 66 59 55 50 44 43 41 34 35 30 26 24 23 23 37 43 42 41 41 43 45 46 50 51 53 52 52 50 49 49 44 38 38 39 41 45 48 55 54 60 65 61 35 20 20 16
30 30 33 38 51 66 72 72 64 58 56 50 47 46 46 44 36 32 32 32 30 40 41 44 43 42 43 44 45 47 49 49 51 52 50 46 48 46 40 39 42 44 46 50 53 60 61 44 19 13 20 22 20 17
29 31 38 50 60 65 75 73 63 60 61 55 51 53 52 49 42 35 39 35 34 37 40 48 48 48 49 49 47 48 48 49 49 48 46 43 41 38 39 40 42 43 46 54 60 63 48 19 20 24 30 28 22 17
30 33 51 64 69 98 79 69 63 59 56 59 64 65 64 54 40 43 51 39 34 37 47 52 52 53 54 52 50 46 43 42 42 42 39 39 38 39 39 41 46 48 51 55 56 36 20 23 27 30 28 23 18 16
36 70 68 98 88 90 99 99 77 87 89 74 71 80 54 42 73 70 64 43 33 34 46 52 53 54 53 53 52 48 42 36 36 34 34 38 42 42 42 44 49 56 59 59 38 16 16 19 24 26 27 29 28 29
94 84 88 93 95 88 90 97 95 92 82 84 68 60 54 62 76 81 58 41 37 32 38 47 50 52 52 48 49 43 36 39 40 42 41 42 44 42 45 46 48 50 41 24 13 12 16 20 24 28 33 30 25 25
93 91 76 71 67 69 74 70 67 71 95 86 83 79 92 80 81 62 40 41 38 37 33 40 37 37 36 39 39 34 27 37 41 42 40 43 46 45 35 31 23 15 16 12 12 14 18 21 24 27 28 29 27 26
81 77 84 68 66 70 82 82 92 87 87 65 66 87 80 72 70 42 40 43 40 37 33 39 34 38 38 38 39 40 39 29 38 42 44 42 48 52 48 36 36 38 28 26 22 17 18 19 21 21 19 18 19 22
80 76 67 86 74 73 69 76 71 59 58 60 71 92 59 51 52 44 38 47 43 41 36 38 41 39 38 37 39 40 38 24 41 47 47 43 40 42 42 37 29 23 22 17 15 14 15 15 15 15 16 16 16 18
80 69 72 89 94 96 98 92 76 60 58 54 58 53 54 54 49 43 52 53 46 42 32 28 37 40 39 37 35 38 37 22 14 16 17 14 7 13 13 12 11 12 13 13 14 17 20 21 21 20 18 18 19 19
76 75 81 94 96 98 86 87 75 69 67 60 51 48 54 36 35 37 53 54 49 42 39 36 36 39 38 36 29 25 26 19 13 13 16 13 12 12 13 15 17 18 19 21 22 23 24 27 29 30 26 22 22 23
79 95 99 96 97 86 89 71 71 65 64 52 54 57 50 35 30 30 37 54 54 48 40 29 22 20 18 16 11 9 8 8 7 8 10 13 16 17 18 18 18 20 21 22 23 24 26 28 30 32 32 27 25 26
98 98 90 76 87 98 68 78 74 74 64 57 45 41 35 40 39 22 21 25 31 29 22 17 13 12 11 11 12 12 9 9 10 12 14 16 16 18 19 18 19 21 22 23 25 27 29 30 31 34 34 30 28 27